Tracking 23757 objects as of 24-Oct-2021
HD Live streaming from Space Station
objects crossing your sky now

DELTA 1 R/B

Track DELTA 1 R/B now!
10-day predictions


NORAD ID: 7616
Int'l Code: 1975-004B
Perigee: 747.4 km
Apogee: 1,019.2 km
Inclination: 97.8 °
Period: 102.5 minutes
Semi major axis: 7254 km
RCS: 5.2306 m2 (large)
Launch date: January 22, 1975
Source: United States (US)
Launch site: AIR FORCE WESTERN TEST RANGE (AFWTR)

Note: This is a ROCKET BODY
aabbcc
Your satellite tracking list
Your tracking list is empty




NASA's NSSDC Master Catalog

Two Line Element Set (TLE):
1 07616U 75004B   21297.48797556  .00000122  00000-0  82811-4 0  9997
2 07616  97.7679 210.8171 0187344  14.7547 345.8988 14.05107027382041
Source of the keplerian elements: AFSPC